EDT,Max TemperatureF,Mean TemperatureF,Min TemperatureF,Max Dew PointF,MeanDew PointF,Min DewpointF,Max Humidity, Mean Humidity, Min Humidity, Max Sea Level PressureIn, Mean Sea Level PressureIn, Min Sea Level PressureIn, Max VisibilityMiles, Mean VisibilityMiles, Min VisibilityMiles, Max Wind SpeedMPH, Mean Wind SpeedMPH, Max Gust SpeedMPH,PrecipitationIn, CloudCover, Events, WindDirDegrees
2012-10-1,70,58,46,62,56,47,100,90,59,29.98,29.94,29.91,10,8,0,6,1,,0.01,4,Fog-Rain,173
2012-10-2,68,64,61,68,65,62,100,100,100,29.97,29.92,29.88,10,4,0,7,2,,1.19,8,Fog-Rain,18
2012-10-3,85,76,67,75,71,68,100,94,66,30.12,30.05,29.95,10,6,0,7,1,,0.01,4,Fog-Rain,215
2012-10-4,81,68,56,74,68,57,100,91,64,30.15,30.13,30.11,10,6,0,10,2,16,0.00,2,Fog-Rain,325
2012-10-5,82,67,52,66,59,52,100,84,48,30.15,30.08,29.96,10,7,0,10,1,,0.00,0,Fog,202
2012-10-6,81,64,46,67,58,46,100,84,62,30.05,29.92,29.85,10,10,2,16,4,25,0.00,1,,272
2012-10-7,54,47,40,51,48,40,100,95,83,30.18,30.10,30.03,10,8,0,7,2,,0.05,7,Fog-Rain,348
2012-10-8,53,44,36,48,44,37,100,93,76,30.30,30.24,30.18,10,8,0,10,2,,0.03,6,Fog-Rain,6
2012-10-9,63,54,46,57,52,47,100,90,74,30.21,30.14,30.06,10,10,5,10,4,,0.04,8,Rain,14
2012-10-10,71,58,45,59,52,44,100,80,55,30.10,29.98,29.88,10,8,0,16,3,22,0.00,4,Fog,286
2012-10-11,64,52,39,45,41,37,100,68,42,30.31,30.22,30.11,10,10,10,12,5,,0.00,0,,293
2012-10-12,68,52,36,52,43,36,100,84,45,30.43,30.24,30.14,10,9,2,21,3,26,0.00,0,,340
2012-10-13,62,46,31,46,39,32,100,78,49,30.53,30.43,30.29,10,10,2,9,2,16,0.00,0,,170
2012-10-14,75,60,44,62,55,43,95,77,57,30.28,30.13,29.94,10,10,10,20,7,24,0.00,1,,194
2012-10-15,72,63,54,67,62,50,100,89,76,29.93,29.78,29.67,10,9,0,14,8,22,0.10,3,Fog-Rain-Thunderstorm,214
2012-10-16,67,54,40,51,48,41,100,78,51,29.93,29.89,29.83,10,10,4,18,6,22,0.00,1,,322
2012-10-17,71,54,37,55,48,38,100,85,53,30.02,29.95,29.90,10,8,0,9,1,,0.00,0,Fog,157
2012-10-18,74,58,43,64,56,44,100,90,64,29.95,29.88,29.79,10,9,0,12,3,16,0.20,4,Fog-Rain-Thunderstorm,154
2012-10-19,76,62,47,68,61,48,100,91,59,29.76,29.70,29.61,10,8,1,10,3,,0.00,5,Rain,286
2012-10-20,70,56,41,55,48,42,100,85,48,29.93,29.79,29.68,10,9,1,8,1,,0.00,4,,303
2012-10-21,67,52,36,50,44,36,100,81,48,30.15,30.07,29.95,10,9,3,13,2,18,0.00,0,,296
2012-10-22,73,54,36,53,46,36,100,81,47,30.23,30.16,30.11,10,8,1,6,1,,0.00,0,,214
2012-10-23,83,64,45,63,57,46,100,81,49,30.14,30.08,30.03,10,10,10,7,1,,0.00,0,,204
2012-10-24,83,66,50,65,58,50,100,84,44,30.13,30.09,30.07,10,8,1,8,0,,0.00,0,,355
2012-10-25,73,62,51,67,60,51,100,96,78,30.22,30.16,30.11,10,6,0,7,1,,0.00,3,Fog,69
2012-10-26,70,64,57,66,63,58,100,95,82,30.19,30.13,30.04,10,7,1,6,1,,0.00,7,,68
2012-10-27,70,64,58,62,58,53,100,85,58,30.03,29.93,29.85,10,10,7,10,5,,0.00,3,Rain,31
2012-10-28,61,58,54,58,54,50,100,85,69,29.85,29.73,29.60,10,9,5,16,10,23,0.13,8,Rain,5
2012-10-29,54,50,46,54,50,45,100,99,95,29.59,29.29,28.79,10,8,3,36,17,54,1.23,8,Rain,315
2012-10-30,46,44,41,45,43,41,100,98,93,29.47,29.19,28.80,10,10,7,15,9,32,0.09,8,Rain,209
2012-10-31,56,47,38,47,43,38,100,86,64,29.67,29.56,29.46,10,10,4,10,2,,0.00,6,Rain,210